"Pseudo-MPEC" for P11JuVL

Created 2023 Sep 27 2:22:12 UT using Find_Orb

Click here for an explanation of pseudo-MPECs

 
 Astrometry: 
     P11JuVL* C2023 09 14;A)yZS_PI;9gMeT_yu5xaa8+4[WCtL8/7vcPfl?Ss^.Y7)H5c/v!F51
     P11JuVL  C2023 09 14od6a1RyMbk#%A]k3VAstrometryD-redacted;:RfQ54@SxpTm5EF51
     P11JuVL  C2023 09 14sv0v7BA:Gbw8PS67GC#RXkL1CB@6W?d.OD^ff%ZgAWYqdo.e8eqKF51
     P11JuVL  C2023 09 141C6T?VEQuc_J-CjMJnC[MoyvWd5C5`.XPR-;)\$clickBaeeQlgVF51
     P11JuVL 2C2023 09 14`07gY7d7Uy4k9B#i8/PT8g2Z(xyYDfi+Q'r0r6!hereMi5r(WPLpK93
     P11JuVL 2C2023 09 14_V$Rw6f%hf93,(r7/D'[#/J9'-pW3@qCxIA55F#U9jbBy+a!3v%vK93
     P11JuVL 2C2023 09 14r#-B5tc`a/9Px9.TSRuooVKmRPiRG:D6hav,for#_yS]9;klnagcK93
     P11JuVL 2C2023 09 14Wms(a%2*14QKXgnt=wP`ml+_`mL#Jsv,4!r?2`p88explanationK93

Station data:
(F51) Pan-STARRS 1, Haleakala  (N20.707234 W156.255910)  US/Hawaii.
   Observers J. Bulger, T. Lowe, A. Schultz, M. Willman. Measurers K.
   Chambers, S. Chastel, T. de Boer, L. Denneau, J. Fairlamb, H. Flewelling,
   M. Huber, C.-C. Lin, E. Magnier, Y. Ramanjooloo, R. Wainscoat, R. Weryk.
   1.8-m Ritchey-Chrétien + CCD.
(K93) Sutherland-LCOGT C  (S32.380667 E20.810110)  South Africa.  Observer J.
   D. Armstrong. 1.0-m f/8.0 Ritchey-Chrétien + CCD.

Orbital elements:  P11JuVL
   Perihelion 2023 Dec 13.65773 +/- 69.1 TT = 15:47:08 (JD 2460292.15773)
Epoch 2023 Sep 15.0 TT = JDT 2460202.5   Earth MOID: 0.3385   Ju: 0.9236
M 354.83520594 +/- 9                Ma: 0.0937   Sa: 0.1424      AutoNEOCP
n   0.05760567 +/- 0.0724           Peri.   14.99680 +/- 80
a   6.63986445 +/- 5.56             Node    41.05183 +/- 20
e   0.8013751 +/- 0.188             Incl.   22.61262 +/- 3.6
P  17.11                   H 19.00  G  0.15   U 11.0  SR
q 1.31884175 +/- 0.3    Q 11.9608871 +/- 5.29             (J2000 ecliptic)
From 8 observations 2023 Sept. 14 (11.5 hr); mean residual 0".08
Residuals in arcseconds: 
230914 F51  .16+  .13+    230914 F51  .09-  .07-    230914 K93  .02+  .06-    
230914 F51  .03-  .00     230914 K93  .05-  .02+    230914 K93  .13+  .05+    
230914 F51  .05-  .07-    230914 K93  .06-  .03+    

Ephemerides (geocentric):
Date (UTC) HH   RA             Dec           delta  r     elong  mag " sig PA
---- --------  ------------   ------------  ------ ------ -----  --- --------
2023 09 27 02  00 50 43.603   -33 41 14.16  .74406 1.6622 143.8 20.5  739  71
2023 09 27 03  00 50 40.684   -33 41 01.46  .74374 1.6619 143.8 20.5  744  70
2023 09 27 04  00 50 37.762   -33 40 48.69  .74342 1.6616 143.8 20.5  750  70
2023 09 27 05  00 50 34.836   -33 40 35.83  .74310 1.6613 143.8 20.5  755  70
2023 09 27 06  00 50 31.907   -33 40 22.90  .74278 1.6609 143.8 20.5  761  70
2023 09 27 07  00 50 28.973   -33 40 09.89  .74246 1.6606 143.8 20.5  767  70
2023 09 27 08  00 50 26.036   -33 39 56.80  .74214 1.6603 143.8 20.5  772  70
2023 09 27 09  00 50 23.096   -33 39 43.64  .74182 1.6600 143.8 20.5  778  70
2023 09 27 10  00 50 20.152   -33 39 30.39  .74150 1.6597 143.8 20.5  784  70
2023 09 27 11  00 50 17.204   -33 39 17.07  .74118 1.6594 143.8 20.5  789  70
2023 09 27 12  00 50 14.252   -33 39 03.66  .74086 1.6591 143.8 20.5  795  70
2023 09 27 13  00 50 11.297   -33 38 50.18  .74055 1.6587 143.8 20.5  801  70
2023 09 27 14  00 50 08.338   -33 38 36.62  .74023 1.6584 143.8 20.5  807  70
2023 09 27 15  00 50 05.376   -33 38 22.98  .73991 1.6581 143.8 20.5  812  70
2023 09 27 16  00 50 02.410   -33 38 09.27  .73959 1.6578 143.8 20.5  818  70
2023 09 27 17  00 49 59.440   -33 37 55.47  .73928 1.6575 143.8 20.5  824  70
2023 09 27 18  00 49 56.467   -33 37 41.59  .73896 1.6572 143.8 20.5  830  70
2023 09 27 19  00 49 53.490   -33 37 27.63  .73864 1.6569 143.8 20.5  836  70
2023 09 27 20  00 49 50.510   -33 37 13.60  .73833 1.6565 143.8 20.5  842  70
2023 09 27 21  00 49 47.526   -33 36 59.48  .73801 1.6562 143.8 20.5  848  70
2023 09 27 22  00 49 44.538   -33 36 45.29  .73770 1.6559 143.8 20.5  854  70
2023 09 27 23  00 49 41.547   -33 36 31.01  .73738 1.6556 143.8 20.5  860  70
2023 09 28 00  00 49 38.552   -33 36 16.66  .73707 1.6553 143.8 20.5  866  70
2023 09 28 01  00 49 35.554   -33 36 02.22  .73675 1.6550 143.8 20.5  872  70
2023 09 28 02  00 49 32.552   -33 35 47.70  .73644 1.6547 143.8 20.5  878  70
2023 09 28 03  00 49 29.546   -33 35 33.11  .73612 1.6544 143.8 20.5  884  70
2023 09 28 04  00 49 26.537   -33 35 18.43  .73581 1.6540 143.8 20.5  890  70
2023 09 28 05  00 49 23.525   -33 35 03.67  .73550 1.6537 143.8 20.5  896  69
2023 09 28 06  00 49 20.509   -33 34 48.84  .73518 1.6534 143.8 20.5  903  69
2023 09 28 07  00 49 17.489   -33 34 33.92  .73487 1.6531 143.8 20.5  909  69
2023 09 28 08  00 49 14.466   -33 34 18.92  .73456 1.6528 143.8 20.4  915  69
2023 09 28 09  00 49 11.439   -33 34 03.84  .73424 1.6525 143.8 20.4  921  69
2023 09 28 10  00 49 08.409   -33 33 48.67  .73393 1.6522 143.8 20.4  928  69
2023 09 28 11  00 49 05.376   -33 33 33.43  .73362 1.6519 143.8 20.4  934  69
2023 09 28 12  00 49 02.338   -33 33 18.10  .73331 1.6515 143.8 20.4  940  69
2023 09 28 13  00 48 59.298   -33 33 02.70  .73300 1.6512 143.8 20.4  947  69
2023 09 28 14  00 48 56.254   -33 32 47.21  .73269 1.6509 143.8 20.4  953  69
2023 09 28 15  00 48 53.206   -33 32 31.64  .73237 1.6506 143.8 20.4  959  69
2023 09 28 16  00 48 50.155   -33 32 15.99  .73206 1.6503 143.8 20.4  966  69
2023 09 28 17  00 48 47.101   -33 32 00.25  .73175 1.6500 143.8 20.4  972  69
2023 09 28 18  00 48 44.043   -33 31 44.44  .73144 1.6497 143.8 20.4  979  69
2023 09 28 19  00 48 40.982   -33 31 28.54  .73113 1.6494 143.8 20.4  985  69
2023 09 28 20  00 48 37.917   -33 31 12.56  .73082 1.6491 143.8 20.4  992  69
2023 09 28 21  00 48 34.849   -33 30 56.50  .73051 1.6487 143.8 20.4  999  69
2023 09 28 22  00 48 31.777   -33 30 40.35  .73020 1.6484 143.8 20.4 1005  69
2023 09 28 23  00 48 28.702   -33 30 24.12  .72990 1.6481 143.8 20.4 1012  69
2023 09 29 00  00 48 25.623   -33 30 07.81  .72959 1.6478 143.7 20.4 1018  69
2023 09 29 01  00 48 22.542   -33 29 51.42  .72928 1.6475 143.7 20.4 1025  69